Location: Kaarina
(60.4167°N, 22.4167°E)
Time: 19:03:45
(UTC+03:00)

Cosmos 389 Rocket - Pass Details

Date: 24 August 2019
Orbit: 444 x 479 km, 81.1° (Epoch: 21 September)

Event Time Altitude Azimuth Distance (km) Brightness Sun altitude
Rises 23:07:39 0° 347° (NNW) 2,533 7.5 -13.0°
Reaches altitude 10° 23:10:08 10° 4° (N) 1,644 6.0 -13.2°
Maximum altitude 23:12:57 21° 56° (NE) 1,097 4.3 -13.4°
Enters shadow 23:14:55 14° 97° (E) 1,380 4.5 -13.5°
